Location: Albany
(35.0170°S, 117.8920°E)
Time: 00:16:17
(UTC+08:00)

Explorer 7 - Pass Details

Date: 25 January 2021
Orbit: 484 x 677 km, 50.3° (Epoch: 01 March)

Event Time Altitude Azimuth Distance (km) Brightness Sun altitude
Rises 19:54:39 0° 227° (SW) 2,968 12.4 -7.1°
Reaches altitude 10° 19:58:19 10° 199° (SSW) 2,012 10.5 -7.7°
Maximum altitude 20:00:27 13° 171° (S) 1,793 9.7 -8.1°
Drops below altitude 10° 20:02:33 10° 143° (SE) 1,952 9.6 -8.5°
Sets 20:05:59 0° 114° (ESE) 2,799 10.1 -9.1°
